Home > Weather > Bend > Past weeks

Flag for USA Past Weather in Bend, Oregon, USA — Yesterday and Last 2 Weeks

Now
91 °F

Sunny.


Feels Like: 87 °F
Forecast: 54 / 87 °F
Wind: 12 mph from North

Location: Roberts Field Airport

Current Time: Jun 28, 2016 at 5:07:06 PM

Latest Report: Jun 28, 2016 at 3:56 PM


Visibility: 10 mi

Pressure: 30.00 "Hg (26.52 "Hg at 1103m altitude)

Humidity: 18%

Dew Point: 42 °F

Location of BendLocation

Past Weather in Bend — Graph

°F

Bend Temperature Yesterday

Maximum temperature yesterday: 90 °F (at 3:56 PM)
Minimum temperature yesterday: 51 °F (at 5:56 AM)
Average temperature yesterday: 73 °F

High & Low Weather Summary for the Past Weeks

 TemperatureHumidityPressure
High91 °F (Jun 28, 3:56 PM)92% (Jun 17, 2:56 AM)30.38 "Hg (Jun 17, 2:56 AM)
Low27 °F (Jun 15, 5:56 AM)13% (Jun 25, 3:56 PM)29.82 "Hg (Jun 15, 1:56 PM)
Average59 °F49%30.08 "Hg
* Reported Jun 13 3:56 PM — Jun 28 3:56 PM, Bend, Weather by CustomWeather, © 2016

Note: Actual official high and low records may vary slightly from our data, if they occured in-between our weather recording intervals... More about our weather records

Advertising

Bend Weather History for the Previous 24 Hours

Scroll right to see more
 ConditionsComfort  
Time TempWeatherWind HumidityBarometerVisibility
3:56 PM
Tue, Jun 28
91 °FSunny.12 mph18%30.00 "Hg10 mi
2:56 PM90 °FSunny.13 mph17%30.02 "Hg10 mi
1:56 PM87 °FSunny.6 mph20%30.03 "Hg10 mi
12:56 PM85 °FSunny.3 mph23%30.05 "Hg10 mi
11:56 AM81 °FSunny.7 mph28%30.08 "Hg10 mi
10:56 AM78 °FSunny.7 mph31%30.09 "Hg10 mi
9:56 AM77 °FSunny.7 mph35%30.09 "Hg10 mi
8:56 AM72 °FSunny.3 mph43%30.11 "Hg10 mi
7:56 AM68 °FSunny.3 mph49%30.12 "Hg10 mi
6:56 AM61 °FSunny.3 mph62%30.11 "Hg8 mi
5:56 AM51 °FClear.3 mph83%30.12 "Hg10 mi
4:56 AM53 °FClear.No wind80%30.10 "Hg10 mi
3:56 AM54 °FClear.5 mph77%30.10 "Hg10 mi
2:56 AM55 °FClear.5 mph77%30.10 "Hg10 mi
1:56 AM58 °FClear.3 mph70%30.09 "Hg10 mi
12:56 AM63 °FClear.3 mph63%30.09 "Hg10 mi
11:56 PM
Mon, Jun 27
62 °FClear.No wind62%30.09 "Hg6 mi
10:56 PM70 °FClear.5 mph51%30.09 "Hg10 mi
9:56 PM75 °FClear.9 mph39%30.07 "Hg10 mi
8:56 PM77 °FSunny.12 mph35%30.05 "Hg10 mi
7:56 PM82 °FSunny.14 mph26%30.03 "Hg10 mi
6:56 PM88 °FSunny.15 mph15%30.02 "Hg10 mi
5:56 PM89 °FSunny.12 mph14%30.03 "Hg10 mi
Weather by CustomWeather, © 2016

See weather overviewHow to use our weather pages